AirNav   Air Wisconsin pilot careers
 
 1625 users online  

I54 Mad River Airpark
Tremont City, Ohio, USA

GOING TO TREMONT CITY?


FAA INFORMATION EFFECTIVE 11 OCTOBER 2018

Location

FAA Identifier: I54
Lat/Long: 40-01-12.2130N / 083-49-42.7480W
40-01.203550N / 083-49.712467W
40.0200592 / -83.8285411
(estimated)
Elevation: 958 ft. / 292 m (estimated)
Variation: 04W (1985)
From city: 1 mile NE of TREMONT CITY, OH
Time zone: UTC -4 (UTC -5 during Standard Time)
Zip code: 45502

Airport Operations

Airport use: Open to the public
Activation date: 07/1964
Control tower: no
ARTCC: INDIANAPOLIS CENTER
FSS: DAYTON FLIGHT SERVICE STATION
NOTAMs facility: DAY (NOTAM-D service available)
Attendance: IREG
Pattern altitude: 1803 ft. MSL
Wind indicator: lighted
Segmented circle: no
Lights: ACTVT LIRL RY 09/27 - 122.8.

Airport Communications

CTAF/UNICOM: 123.0
COLUMBUS APPROACH: 118.425
COLUMBUS DEPARTURE: 118.425
CLASS C IC: 118.425
WX AWOS-3 at I74 (8 nm NE): 118.325 (937-484-5863)
WX AWOS-3PT at SGH (11 nm S): 134.975
WX AWOS-3PT at UYF (18 nm E): 120.85 (740-852-2844)
WX ASOS at DAY (19 nm W): PHONE 937-415-6819
WX AWOS-3 at SCA (20 nm NW): 120.425 (937-492-3683)

Nearby radio navigation aids

VOR radial/distance  VOR name  Freq  Var
SGHr008/11.0SPRINGFIELD VOR/DME113.2004W
RODr154/18.8ROSEWOOD VORTAC117.5005W
DQNr091/26.1DAYTON VOR/DME114.5001W
MXQr002/35.4MIDWEST VOR/DME112.9004W

 
NDB name  Hdg/Dist  Freq  Var  ID
CLARK COUNTY350/9.134104WCCJ -.-. -.-. .---
COURT HOUSE327/32.241406WCSS -.-. ... ...

Airport Services

Parking: hangars and tiedowns
Airframe service: NONE
Powerplant service: NONE
Bottled oxygen: NONE
Bulk oxygen: NONE

Runway Information

Runway 9/27

Dimensions: 3405 x 110 ft. / 1038 x 34 m
Surface: turf, in good condition
Runway edge lights: non-standard
NSTD LIRL; ONLY 2165 FT LGTD BTN DSPLCD THLDS.
Runway edge markings: FIRST 340 FT NOT MKD; RY 27 FIRST 505 FT NOT MKD; ONLY 2560 FT MKD WITH ORANGE CONES; RY 09/27 DSPLCD THLD MKD WITH CONES & ONE GREEN LGT EACH SIDE OF RY.
RUNWAY 9  RUNWAY 27
Latitude: 40-01.191167N40-01.215667N
Longitude: 083-50.076000W083-49.348333W
Elevation: 955.0 ft.955.0 ft.
Gradient: 0.5%0.5%
Traffic pattern: leftleft
Displaced threshold: 340 ft.900 ft.
Markings: nonenone
Runway end identifier lights: no
Obstructions: 25 ft. pole, lighted, 60 ft. left and right of centerline
APCH SLOPE 10:1 TO DSPLCD THLD OVR 186 FT WOODED HILL AT 1955 FT.
15 ft. pole, lighted, 124 ft. left and right of centerline
APCH SLOPE 12:1 TO DSPLCD THLD OVR 105 FT TREES AT 1289 FT FR DSPLCD THLD 167 FT R.

Airport Ownership and Management from official FAA records

Ownership: Privately-owned
Owner: MAD RIVER AIRPARK, LLC
6488 UPPER VALLEY PIKE
URBANA, OH 43078
Phone (937) 390-3040
Manager: TIMOTHY HICKERSON
6488 UPPER VALLEY PIKE
URBANA, OH 43078
Phone (937) 390-3040

Airport Operational Statistics

Aircraft based on the field: 12
Single engine airplanes: 10
Ultralights: 2
    
Aircraft operations: avg 38/week *
50% transient general aviation
50% local general aviation
* for 12-month period ending 27 August 2016

Additional Remarks

CMH APP CD 614-338-8537.

Instrument Procedures

There are no published instrument procedures at I54.

Some nearby airports with instrument procedures:

I74 - Grimes Field Airport (8 nm NE)
KSGH - Springfield-Beckley Municipal Airport (11 nm S)
KFFO - Wright-Patterson Air Force Base (15 nm SW)
KUYF - Madison County Airport (18 nm E)
KDAY - James M Cox Dayton International Airport (19 nm W)
KSCA - Sidney Municipal Airport (20 nm NW)
 
Loc | Ops | Rwys | IFR | FBO | Links
Com | Nav | Svcs | Stats | Notes


 
Area around I54 (Mad River Airpark)
 
Road maps at: MapQuest Bing Google
 
Aerial photo
WARNING: Photo may not be current or correct
Aerial photo of I54 (Mad River Airpark)
Do you have a better or more recent aerial photo of Mad River Airpark that you would like to share? If so, please send us your photo.

 
Sectional chart

 
Airport distance calculator
Flying to Mad River Airpark? Find the distance to fly.

From to I54

Sunrise and sunset
Times for 15-Oct-2018
 Local
(UTC-4)
 Zulu
(UTC)
Morning civil twilight07:2011:20
Sunrise07:4711:47
Sunset18:5522:55
Evening civil twilight19:2323:23

Current date and time
Zulu (UTC)  15-Oct-2018 15:12:11
Local (UTC-4)  15-Oct-2018 11:12:11
 
METAR
KSGH 
12nm S 
151456Z AUTO 26011KT 3SM -RA BR BKN006 OVC013 12/12 A3005 RMK AO2 RAB22 CIG 005V008 SLP179 P0000 60000 T01220122 53021 $
KFFO 
15nm SW 
151456Z 28010KT 2SM -RA BR BKN003 OVC007 13/12 A3006 RMK AO2A CIG 003V007 BKN V SCT PRESRR SLP183 P0002 60002 T01260115 52026
KUYF 
18nm E 
151455Z AUTO 26008G14KT 4SM +DZ BKN009 OVC015 12/11 A3003 RMK AO2
KDAY 
19nm W 
151456Z 27012KT 2SM -RA BR BKN009 OVC015 12/11 A3007 RMK AO2 SFC VIS 3 RAE27B47 SLP185 P0002 60004 T01170111 53027
KEDJ 
21nm N 
151435Z AUTO 29008KT 6SM BKN007 BKN011 10/ A3003 RMK AO1
TAF
KFFO 
15nm SW 
151250Z 1512/1617 25009KT 9999 -SHRA OVC007 QNH2994INS BECMG 1514/1515 30012KT 9999 NSW OVC010 QNH2994INS BECMG 1518/1519 31012G18KT 9999 SCT020 SCT120 QNH2994INS BECMG 1523/1524 30009KT 9999 FEW250 QNH2994INS TX15/1516Z TN02/1611Z
KDAY 
19nm W 
151350Z 1514/1612 27010KT P6SM -RA OVC007 TEMPO 1514/1516 2SM -RA BR FM151600 30012G18KT P6SM OVC012 FM151900 31013G19KT P6SM BKN022 FM152200 31008KT P6SM SCT025 FM160100 31003KT P6SM SKC
NOTAMs
Click for the latest NOTAMs
NOTAMs are issued by the DoD/FAA and will open in a separate window not controlled by AirNav.

 

 
 

Would you like to see your business listed on this page?

 If your business provides an interesting product or service to pilots, flight crews, aircraft, or users of the Mad River Airpark, you should consider listing it here.  To start the listing process, click on the button below
 
Add a business
 

Other Pages about Mad River Airpark

www.madriverinc.com
 
Update a link
 
Copyright © AirNav, LLC. All rights reserved. Privacy Policy  Contact